Miscellaneous Local Product
Issued by NWS Hastings, NE

Home | Current Version | Previous Version | Text Only | Print | Product List | Glossary On
Versions: 1 2 3 4 5 6 7 8 9 10 11 12 13 14 15 16 17 18 19 20 21 22 23 24 25 26 27 28 29 30 31 32 33 34 35 36 37 38 39 40 41 42 43 44 45 46 47 48 49 50
000
AXUS43 KGID 021102
MISGRI

GID CWA HOURLY WEATHER ROUNDUP
NATIONAL WEATHER SERVICE HASTINGS NE
600 AM CDT SUN AUG 02 2015

NOTE: "FAIR" INDICATES FEW OR NO CLOUDS BELOW 12,000 FEET WITH NO
SIGNIFICANT WEATHER AND/OR OBSTRUCTIONS TO VISIBILITY.

...SOUTH CENTRAL NEBRASKA...

CITY           SKY/WX    TMP DP  RH WIND       PRES   REMARKS
GRAND ISLAND   CLEAR     68  63  84 SW7       29.89S
HASTINGS       PTCLDY    67  64  90 SW3       29.90S
KEARNEY        PTCLDY    70  61  73 SW3       29.91S
ORD            CLEAR     58  56  93 NW3       29.86S
YORK           CLEAR     66  64  94 SW5       29.88F
AURORA         PTCLDY    67  66  96 SW8       29.89S
LEXINGTON      PTCLDY    64  61  91 CALM      29.92S
HOLDREGE       PTCLDY    67  63  86 S6        29.92S
HEBRON         PTCLDY    71  66  85 SW6       29.90S

...NEBRASKA PANHANDLE...

CITY           SKY/WX    TMP DP  RH WIND       PRES   REMARKS
CHADRON        CLEAR     62  54  74 SW12      29.92F
ALLIANCE       CLEAR     55  52  89 W5        29.97F
SCOTTSBLUFF    CLEAR     59  55  87 CALM      30.00R
SIDNEY         CLEAR     60  54  80 W5        30.01F

...WESTERN AND NORTH CENTRAL NEBRASKA...

CITY           SKY/WX    TMP DP  RH WIND       PRES   REMARKS
VALENTINE      NOT AVBL
AINSWORTH      CLEAR     64  58  81 SW7       29.88R
ONEILL         CLEAR     64  61  91 W9        29.83S
BROKEN BOW     CLEAR     59  56  89 CALM      29.91S
IMPERIAL       CLEAR     63  58  83 CALM      29.96S
NORTH PLATTE   CLEAR     59  56  89 E3        29.93F
MCCOOK         CLEAR     66  60  81 CALM      29.93S

...EASTERN NEBRASKA...

CITY           SKY/WX    TMP DP  RH WIND       PRES   REMARKS
NORFOLK        CLEAR     66  64  93 CALM      29.81S
SO SIOUX CITY  CLEAR     69  64  84 S6        29.80S
TEKAMAH        PTCLDY    69  67  93 S7        29.81S
COLUMBUS       CLEAR     72  63  73 CALM      29.84R
ALBION         CLEAR     67  62  83 W3        29.83F
OMAHA EPPLEY   MOCLDY    74  70  87 SE7       29.84F
OFFUTT AFB     MOCLDY    70  68  94 SE6       29.84F
MILLARD        PTCLDY    73  70  91 CALM      29.84F
LINCOLN        PTCLDY    72  68  87 S7        29.86F
NEBRASKA CITY  PTCLDY    70  69  97 S7        29.87S
BEATRICE       PTCLDY    71  68  90 CALM      29.89R
FALLS CITY     PTCLDY    73  69  87 SW6       29.88R

...NORTHERN KANSAS...

CITY           SKY/WX    TMP DP  RH WIND       PRES   REMARKS
GOODLAND       CLEAR     65  63  93 SW5       29.99S
HILL CITY      CLEAR     69  66  90 SW3       29.94S
NORTON         SUNNY     63  59  88 S5        29.93S
PHILLIPSBURG   CLEAR     72  68  88 CALM      29.93R
SMITH CENTER   CLEAR     68  64  88 S3        29.92S
HAYS           PTCLDY    70  63  78 S7        29.94S
RUSSELL        PTCLDY    71  69  93 S9        29.92S
CONCORDIA      PTCLDY    72  69  90 S10       29.91S
SALINA         MOCLDY    73  69  87 S7        29.92S
TOPEKA         PTCLDY    75  67  76 SW5       29.91F



USA.gov is the U.S. government's official web portal to all federal, state and local government web resources and services.